Virginia Beach, VA

3:10 AM EDT on September 26, 2016 (GMT -0400)
Oceana Naval Air Station

Weather History for KNTU - December, 2011

Change the Weather History Date:

Sunday, December 25, 2011

  Actual Average Record
Temperature  
Mean Temperature 42 °F -  
Max Temperature 54 °F 47 °F 81 °F (2015)
Min Temperature 30 °F 31 °F 21 °F (1999)
Degree Days  
Heating Degree Days 23    
Moisture  
Dew Point 34 °F    
Average Humidity 69    
Maximum Humidity 88    
Minimum Humidity 50    
Precipitation  
Precipitation 0.00 in - - ()
Sea Level Pressure  
Sea Level Pressure 30.26 in    
Wind  
Wind Speed 5 mph (SW)    
Max Wind Speed 15 mph    
Max Gust Speed -    
Visibility 10 miles    
Events      
Averages and records for this station are not official NWS values.
T = Trace of Precipitation, MM = Missing Value Source: NWS Daily Summary

Daily Weather History Graph

Daily Weather History Graph

Search for Another Location

Airport or City:

Trip Planner

Search our weather history database for the weather conditions in past years. The results will help you decide how hot, cold, wet, or windy it might be!

Date:

Astronomy

Dec. 25, 2011 Rise Set
Actual Time 7:14 AM EST 4:53 PM EST
Civil Twilight 6:45 AM EST 5:22 PM EST
Nautical Twilight 6:13 AM EST 5:54 PM EST
Astronomical Twilight 5:41 AM EST 6:26 PM EST
Moon 7:52 AM EST (12/25) 6:10 PM EST (12/25)
Length of Visible Light 10h 36m
Length of Day
9h 38m
New Moon, 1% of the Moon is Illuminated
Dec 25
New Moon
Jan 1
First Quarter
Jan 9
Full
Jan 16
Last Quarter
Jan 23
New

Hourly Weather History & Observations

Time (EST) Temp. Windchill Dew Point Humidity Pressure Visibility Wind Dir Wind Speed Gust Speed Precip Events Conditions
12:56 AM 33.1 °F 28.7 °F 27.0 °F 78% 30.41 in 10.0 mi SW 4.6 mph - N/A   Clear
1:56 AM 32.0 °F - 26.1 °F 79% 30.41 in 10.0 mi Calm Calm - N/A   Clear
2:56 AM 32.0 °F - 26.1 °F 79% 30.41 in 10.0 mi Calm Calm - N/A   Clear
3:56 AM 30.9 °F - 26.1 °F 82% 30.38 in 10.0 mi Calm Calm - N/A   Clear
4:56 AM 30.9 °F - 27.0 °F 85% 30.38 in 10.0 mi Calm Calm - N/A   Clear
5:56 AM 30.9 °F - 27.0 °F 85% 30.39 in 10.0 mi Calm Calm - N/A   Clear
6:56 AM 30.9 °F - 26.1 °F 82% 30.39 in 10.0 mi Calm Calm - N/A   Clear
7:56 AM 32.0 °F - 28.9 °F 88% 30.39 in 10.0 mi Calm Calm - N/A   Clear
8:56 AM 44.1 °F 39.5 °F 35.1 °F 71% 30.38 in 10.0 mi SSW 8.1 mph - N/A   Clear
9:56 AM 48.0 °F - 35.1 °F 61% 30.37 in 10.0 mi SSW 8.1 mph - N/A   Clear
10:56 AM 50.0 °F - 37.0 °F 61% 30.34 in 10.0 mi South 8.1 mph - N/A   Clear
11:56 AM 51.1 °F - 36.0 °F 56% 30.29 in 10.0 mi SW 15.0 mph - N/A   Clear
12:56 PM 53.1 °F - 35.1 °F 50% 30.24 in 10.0 mi SW 13.8 mph - N/A   Clear
1:56 PM 54.0 °F - 37.0 °F 53% 30.21 in 10.0 mi SW 11.5 mph - N/A   Clear
2:56 PM 53.1 °F - 36.0 °F 52% 30.20 in 10.0 mi SSW 10.4 mph - N/A   Clear
3:56 PM 53.1 °F - 37.0 °F 55% 30.19 in 10.0 mi SW 10.4 mph - N/A   Clear
4:56 PM 52.0 °F - 37.9 °F 59% 30.16 in 10.0 mi SSW 11.5 mph - N/A   Clear
5:56 PM 50.0 °F - 37.9 °F 63% 30.14 in 10.0 mi SW 10.4 mph - N/A   Clear
6:56 PM 48.9 °F - 37.9 °F 66% 30.12 in 10.0 mi SW 8.1 mph - N/A   Clear
7:56 PM 46.9 °F - 37.0 °F 68% 30.10 in 10.0 mi SW 6.9 mph - N/A   Clear
8:56 PM 46.9 °F - 39.0 °F 74% 30.08 in 10.0 mi SW 9.2 mph - N/A   Clear
9:56 PM 46.9 °F - 39.0 °F 74% 30.08 in 10.0 mi WSW 10.4 mph - N/A   Clear
10:56 PM 46.9 °F - 37.9 °F 71% 30.07 in 10.0 mi West 15.0 mph - N/A   Clear
11:56 PM 45.0 °F 39.7 °F 37.0 °F 74% 30.06 in 10.0 mi West 10.4 mph - N/A   Clear